Weather History for KPRO - September, 2012

Change the Weather History Date:

Monday, September 17, 2012

  Actual Average Record
Temperature  
Mean Temperature 56 °F -  
Max Temperature 65 °F 72 °F 94 °F (1955)
Min Temperature 46 °F 48 °F 33 °F (1980)
Degree Days  
Heating Degree Days 10    
Growing Degree Days 6 (Base 50)    
Moisture  
Dew Point 48 °F    
Average Humidity 71    
Maximum Humidity 91    
Minimum Humidity 33    
Precipitation  
Precipitation 0.18 in - - ()
Sea Level Pressure  
Sea Level Pressure 29.96 in    
Wind  
Wind Speed 6 mph (NNW)    
Max Wind Speed 16 mph    
Max Gust Speed 25 mph    
Visibility 8 miles    
Events Fog , Rain    
Averages and records for this station are not official NWS values.
T = Trace of Precipitation, MM = Missing Value Source: NWS Daily Summary

Daily Weather History Graph

Daily Weather History Graph

Search for Another Location

Airport or City:

Trip Planner

Search our weather history database for the weather conditions in past years. The results will help you decide how hot, cold, wet, or windy it might be!

Date:

Astronomy

Sep. 17, 2012 Rise Set
Actual Time 6:59 AM CDT 7:21 PM CDT
Civil Twilight 6:31 AM CDT 7:49 PM CDT
Nautical Twilight 5:58 AM CDT 8:22 PM CDT
Astronomical Twilight 5:24 AM CDT 8:55 PM CDT
Moon 8:52 AM CDT (9/17) 8:01 PM CDT (9/17)
Length of Visible Light 13h 18m
Length of Day
12h 22m
Waxing Crescent, 3% of the Moon is Illuminated
Sep 17
Waxing Crescent
Sep 22
First Quarter
Sep 29
Full
Oct 8
Last Quarter
Oct 15
New

Hourly Weather History & Observations

Time (CDT) Temp. Dew Point Humidity Pressure Visibility Wind Dir Wind Speed Gust Speed Precip Events Conditions
12:15 AM 58.1 °F 55.0 °F 90% 29.95 in 1.5 mi South 4.6 mph - N/A   Mist
12:35 AM 58.1 °F 55.4 °F 91% 29.94 in 1.2 mi SSE 3.5 mph - N/A   Mist
1:15 AM 58.1 °F 55.4 °F 91% 29.92 in 1.5 mi SSE 3.5 mph - N/A   Mist
1:35 AM 57.7 °F 55.0 °F 91% 29.92 in 1.5 mi SSE 3.5 mph - N/A   Mist
1:55 AM 57.7 °F 55.0 °F 91% 29.92 in 1.5 mi South 4.6 mph - N/A   Mist
2:15 AM 56.8 °F 54.1 °F 91% 29.92 in 1.2 mi South 4.6 mph - N/A   Mist
2:35 AM 56.3 °F 53.6 °F 91% 29.92 in 1.0 mi South 3.5 mph - N/A   Mist
2:55 AM 55.9 °F 53.2 °F 91% 29.92 in 0.2 mi South 4.6 mph - N/A Fog Fog
3:15 AM 55.2 °F 52.5 °F 91% 29.92 in 0.2 mi Calm Calm - N/A Fog Fog
3:35 AM 55.8 °F 53.2 °F 91% 29.91 in 0.2 mi South 3.5 mph - N/A Fog Fog
4:15 AM 57.4 °F 54.9 °F 91% 29.92 in 1.8 mi Calm Calm - N/A   Overcast
4:55 AM 59.4 °F 56.8 °F 91% 29.92 in 2.5 mi Calm Calm - N/A   Overcast
5:15 AM 59.9 °F 57.2 °F 91% 29.92 in 2.5 mi Calm Calm - N/A   Overcast
5:35 AM 60.1 °F 57.4 °F 91% 29.92 in 2.5 mi Calm Calm - N/A   Overcast
5:55 AM 60.4 °F 57.7 °F 91% 29.92 in 2.0 mi South 4.6 mph - N/A   Overcast
6:15 AM 62.1 °F 59.4 °F 91% 29.92 in 4.0 mi NW 4.6 mph - N/A   Overcast
6:35 AM 61.2 °F 58.3 °F 90% 29.92 in 5.0 mi NNW 9.2 mph - N/A   Mostly Cloudy
7:15 AM 59.0 °F 52.7 °F 80% 29.93 in 10.0 mi NNW 8.1 mph - N/A   Mostly Cloudy
7:35 AM 58.3 °F 50.5 °F 75% 29.93 in 10.0 mi North 8.1 mph - N/A   Mostly Cloudy
8:15 AM 58.1 °F 50.0 °F 74% 29.93 in 10.0 mi North 3.5 mph - N/A   Clear
8:35 AM 59.4 °F 49.8 °F 71% 29.91 in 10.0 mi NE 5.8 mph - N/A   Clear
8:55 AM 60.8 °F 50.2 °F 68% 29.91 in 10.0 mi NNE 4.6 mph - N/A   Clear
9:15 AM 61.7 °F 50.4 °F 66% 29.93 in 10.0 mi North 9.2 mph - N/A   Clear
9:35 AM 62.6 °F 50.2 °F 64% 29.94 in 10.0 mi North 10.4 mph - N/A   Clear
9:55 AM 63.7 °F 48.2 °F 57% 29.95 in 10.0 mi North 12.7 mph 18.4 mph N/A   Clear
10:35 AM 64.6 °F 47.5 °F 54% 29.97 in 10.0 mi North 16.1 mph 21.9 mph N/A   Mostly Cloudy
10:55 AM 64.6 °F 47.3 °F 53% 29.98 in 10.0 mi North 13.8 mph 21.9 mph N/A   Overcast
11:15 AM 60.4 °F 48.6 °F 65% 29.99 in 10.0 mi NNW 13.8 mph 25.3 mph N/A Rain Light Rain
11:35 AM 58.5 °F 50.0 °F 73% 29.99 in 10.0 mi NNW 13.8 mph 24.2 mph N/A   Overcast
11:55 AM 57.0 °F 50.9 °F 80% 29.99 in 10.0 mi North 11.5 mph 20.7 mph N/A Rain Light Rain
12:15 PM 54.7 °F 50.9 °F 87% 29.99 in 2.5 mi NNW 8.1 mph 17.3 mph 0.12 in Rain Heavy Rain
12:35 PM 54.0 °F 50.4 °F 88% 29.99 in 7.0 mi NNW 10.4 mph - 0.17 in Rain Rain
12:55 PM 54.1 °F 50.9 °F 89% 29.99 in 10.0 mi North 6.9 mph - 0.18 in Rain Light Rain
1:15 PM 54.5 °F 50.7 °F 87% 30.02 in 10.0 mi NNW 11.5 mph - N/A   Overcast
1:35 PM 54.5 °F 50.7 °F 87% 30.01 in 10.0 mi North 10.4 mph - N/A   Overcast
1:55 PM 54.9 °F 50.2 °F 84% 29.99 in 10.0 mi North 10.4 mph - N/A   Overcast
2:15 PM 55.9 °F 50.7 °F 83% 29.99 in 10.0 mi NNW 6.9 mph - N/A   Overcast
2:35 PM 55.8 °F 50.4 °F 82% 29.98 in 10.0 mi North 10.4 mph - N/A   Overcast
2:55 PM 56.5 °F 49.8 °F 78% 29.98 in 10.0 mi NNW 8.1 mph 16.1 mph N/A   Overcast
3:15 PM 59.7 °F 50.5 °F 72% 29.98 in 10.0 mi NNW 9.2 mph - N/A   Scattered Clouds
3:35 PM 62.8 °F 48.4 °F 59% 29.98 in 10.0 mi North 9.2 mph 19.6 mph N/A   Clear
3:55 PM 63.0 °F 45.1 °F 52% 29.97 in 10.0 mi North 11.5 mph - N/A   Clear
4:15 PM 63.1 °F 43.7 °F 49% 29.97 in 10.0 mi North 12.7 mph - N/A   Clear
4:35 PM 63.9 °F 42.3 °F 45% 29.97 in 10.0 mi NNW 13.8 mph 18.4 mph N/A   Clear
4:55 PM 65.7 °F 37.9 °F 36% 29.96 in 10.0 mi North 10.4 mph 19.6 mph N/A   Clear
5:15 PM 65.5 °F 38.1 °F 36% 29.96 in 10.0 mi North 10.4 mph - N/A   Clear
5:35 PM 65.7 °F 36.9 °F 35% 29.97 in 10.0 mi North 11.5 mph - N/A   Clear
5:55 PM 65.7 °F 35.8 °F 33% 29.96 in 10.0 mi NNW 9.2 mph - N/A   Clear
6:15 PM 65.3 °F 36.5 °F 34% 29.96 in 10.0 mi North 9.2 mph - N/A   Clear
6:35 PM 64.6 °F 36.7 °F 36% 29.97 in 10.0 mi NNW 10.4 mph - N/A   Clear
6:55 PM 63.3 °F 35.1 °F 35% 29.97 in 10.0 mi North 10.4 mph - N/A   Clear
7:15 PM 61.7 °F 36.3 °F 39% 29.97 in 10.0 mi North 9.2 mph - N/A   Clear
7:35 PM 59.9 °F 37.0 °F 43% 29.98 in 10.0 mi North 6.9 mph - N/A   Clear
7:55 PM 58.1 °F 37.6 °F 46% 29.98 in 10.0 mi North 4.6 mph - N/A   Clear
8:15 PM 56.3 °F 38.3 °F 51% 29.99 in 10.0 mi North 4.6 mph - N/A   Clear
8:35 PM 54.3 °F 39.6 °F 57% 29.99 in 10.0 mi North 4.6 mph - N/A   Clear
9:15 PM 51.1 °F 39.2 °F 64% 29.99 in 10.0 mi Calm Calm - N/A   Clear
9:35 PM 48.6 °F 40.3 °F 73% 29.99 in 10.0 mi WNW 3.5 mph - N/A   Clear
9:55 PM 49.1 °F 39.9 °F 71% 29.99 in 10.0 mi Calm Calm - N/A   Scattered Clouds
10:15 PM 46.9 °F 40.8 °F 79% 29.99 in 10.0 mi WNW 3.5 mph - N/A   Scattered Clouds
10:35 PM 49.1 °F 42.1 °F 77% 30.01 in 10.0 mi NW 6.9 mph - N/A   Mostly Cloudy
10:55 PM 52.0 °F 41.9 °F 69% 30.02 in 10.0 mi NW 5.8 mph - N/A   Overcast
11:15 PM 52.2 °F 41.9 °F 68% 30.02 in 10.0 mi NNW 8.1 mph - N/A   Mostly Cloudy
11:35 PM 52.3 °F 42.1 °F 68% 30.03 in 10.0 mi NNW 6.9 mph - N/A   Overcast
11:55 PM 51.1 °F 42.1 °F 71% 30.03 in 10.0 mi NW 5.8 mph - N/A   Mostly Cloudy